Regional Weather Roundup
Issued by NWS Wakefield, VA

Home | Current Version | Previous Version | Graphics & Text | Print | Product List | Glossary On
Versions: 1 2 3 4 5 6 7 8 9 10 11 12 13 14 15 16 17 18 19 20 21 22 23 24 25 26 27
000
ASUS41 KAKQ 240115
RWRAKQ

REGIONAL WEATHER ROUNDUP
NATIONAL WEATHER SERVICE WAKEFIELD VA
900 PM EDT FRI JUN 23 2017

Note: "fair" indicates few or no clouds below 12,000 feet with no
significant weather and/or obstructions to visibility. * = Denotes
station may not report precipitation (e.g., rain,snow,etc.),
thunder or fog.

VAZ042-051-052>054-056-240200-
NORTHERN VIRGINIA

CITY           SKY/WX    TMP DP  RH WIND       PRES   REMARKS
WASH NATIONAL  MOCLDY    85  74  69 S12       29.71R
DULLES         MOCLDY    82  71  69 S15G21    29.70S
FORT BELVOIR   PTCLDY    84  72  67 S5        29.71R
QUANTICO       MOCLDY    85  76  74 SW8       29.72S
FREDERICKSBRG* PTCLDY    84  74  71 S7        29.72S
STAFFORD*      PTCLDY    82  73  74 S5        29.76F
WARRENTON      MOCLDY    82  70  65 S3        29.71F
CULPEPER*      CLOUDY    83  74  74 S7        29.72F
MANASSAS*      MOCLDY    82  73  74 S3        29.71S
LEESBURG*      PTCLDY    82  75  78 S6        29.71S
WINCHESTER     MOCLDY    81  64  57 SW5       29.70S
FRONT ROYAL*   MOCLDY    81  70  69 SW7       29.69F
LURAY*         MOCLDY    81  70  69 SW6       29.73S
$$

VAZ048-049-060>072-079>083-240200-
CENTRAL AND SOUTH CENTRAL VIRGINIA

CITY           SKY/WX    TMP DP  RH WIND       PRES   REMARKS
RICHMOND       CLOUDY    84  71  65 S15       29.76F
CHESTERFIELD*  FAIR      83  71  67 S9        29.78S
PETERSBURG*    CLEAR     82  68  63 CALM      29.80S
HANOVER        PTCLDY    85  69  58 S12       29.77S
TAPPAHANNOCK*  PTCLDY    84  64  50 S7        29.76S
QUINTON*       FAIR      83  74  72 S5        29.77S
CHARLOTTSVILLE CLOUDY    83  73  72 SW13      29.74F
GORDONSVILLE*  CLOUDY    82  74  78 SW8       29.73F
ORANGE*        CLOUDY    81  72  74 S7        29.73F
LOUISA*        PTCLDY    84  75  74 S8        29.74F
BUMPASS*       FAIR      81  75  82 S5        29.75S
FARMVILLE*     CLOUDY    83  65  54 S9        29.76F
CREWE*         FAIR      82  65  57 S7        29.79S
FORT PICKETT*  FAIR      82  66  60 S16       29.80F
CHASE CITY*    FAIR      82  71  67 S5        29.82S
CLARKSVILLE*   FAIR      81  70  69 S9        29.82S
SOUTH HILL*    CLEAR     79  72  79 S7        29.87F
LAWRENCEVILLE* FAIR      80  71  74 S5        29.82S
EMPORIA*       CLEAR     81  72  74 SE3       29.83S
$$

VAZ088>098-240200-
SOUTHEAST VIRGINIA

CITY           SKY/WX    TMP DP  RH WIND       PRES   REMARKS
NORFOLK        CLEAR     86  73  65 SW17G25   29.80S
VIRGINIA BEACH PTCLDY    85  71  63 SW15      29.81R
NORFOLK NAVAL  PTCLDY    86  71  60 SW13G21   29.82R
WEST POINT*    CLEAR     84  69  61 S7        29.78S
SALUDA*        FAIR      83  75  78 S9        29.77S
NEWPORT NEWS   CLEAR     84  73  69 SW15      29.79S
LANGLEY AFB    CLEAR     85  74  68 S16G23    29.79S
FORT EUSTIS    CLEAR     84  75  72 S8        29.78R
WILLIAMSBURG*  CLEAR     86  73  66 CALM      29.80S
HR EXEC AP*    FAIR      82  72  69 SW10      29.79S
FRANKLIN*      CLEAR     82  73  74 S9        29.82S
US460-WAKEFLD  CLEAR     83  74  74 SW5       29.81R
$$

VAZ020-022-025-037-045-240200-
WEST CENTRAL AND SOUTHWEST VIRGINIA

CITY           SKY/WX    TMP DP  RH WIND       PRES   REMARKS
STAUNTON*      PTCLDY    78  69  74 S6        29.78F
WAYNESBORO*    MOCLDY    79  71  76 S8        29.78F
HOT SPRINGS VA CLOUDY    70  68  94 S9        29.92F
LYNCHBURG      PTCLDY    80  68  66 S17G23    29.79F
DANVILLE       CLEAR     81  71  71 S7        29.81F
SOUTH BOSTON*  FAIR      81  69  66 S7        29.81F
MARTINSVILLE   CLEAR     79  66  65 S6        29.84F
ROANOKE        MOCLDY    82  67  60 S8        29.80F
BLACKSBURG     PTCLDY    78  65  63 S5        29.87F
DUBLIN*        PTCLDY    79  59  50 S9G23     29.84F
MARION*        MOCLDY    78  62  57 S10G23    29.86F
HILLSVILLE*    PTCLDY    74  63  67 S9G21     29.88F
RICHLANDS*     CLOUDY    77  62  59 S7G16     29.81F
WISE*          DRIZZLE   70  64  83 S12G17    29.84R
ABINGDON*      CLOUDY    82  61  47 SW13G21   29.80F
$$

MDZ021>025-VAZ099-100-240200-
SOUTHERN MARYLAND AND THE DELMARVA PENINSULA

CITY           SKY/WX    TMP DP  RH WIND       PRES   REMARKS
PATUXENT RIVER CLOUDY    84  73  69 SW10      29.74R
BAY BRIDGE APT CLOUDY    84  73  70 S7        29.71R
LEONARDTOWN    CLOUDY    82  72  69 SW7       29.75S
DOVER          CLEAR     83  77  81 S14       29.70R
GEORGETOWN     CLEAR     85  72  65 SW17      29.73S
EASTON         MOCLDY    86  73  66 SW10      29.75R
CAMBRIDGE      PTCLDY    84  75  74 S7G14     29.73R
SALISBURY      CLEAR     83  75  77 S15       29.75R
OCEAN CITY     CLEAR     80  75  84 SW14      29.76S
WALLOPS ISLAND CLEAR     76  73  91 S7        29.78S
ACCOMACK*      CLEAR     85  73  69 SW10G16   29.78S
$$

NCZ012>017-030>032-240200-
NORTH CENTRAL AND EASTERN NORTH CAROLINA

CITY           SKY/WX    TMP DP  RH WIND       PRES   REMARKS
ROANOKE RAPIDS FAIR      82  73  74 S10       29.84S
RALEIGH        PTCLDY    85  71  63 SW14      29.86R
ELIZABETH CITY CLEAR     83  79  88 S14G22    29.85R
AHOSKIE*         N/A     81  73  76 S5        29.85R
EDENTON*       CLEAR     84  78  80 S17G24    29.87R HX  95
CURRITUCK*     CLEAR     84  77  80 S9G16     29.84S
KILL DEVIL HLS CLEAR     81  74  79 S12G21    29.87R
MANTEO         CLEAR     81  75  82 SW20      29.89R
CAPE HATTERAS  CLEAR     80  75  84 SW15G24   29.93S
TARBORO*       NOT AVBL
GOLDSBORO      CLEAR     84  81  90 S9        29.87R HX  98
WASHINGTON     CLEAR    N/A N/A N/A S9        29.88S
GREENVILLE     CLEAR     86  73  66 SW14      29.89S
NEW BERN       CLEAR     80  74  81 SW13      29.92S
WILMINGTON     CLEAR     80  72  76 SW14G22   29.95R
$$

VAZ048-240200-
ELSEWHERE

CITY           SKY/WX    TMP DP  RH WIND       PRES   REMARKS
HARRISBURG PA  CLOUDY    76  72  87 SW15      29.66R
BALTIMORE      MOCLDY    84  74  71 SW10      29.69R
ANNAPOLIS      PTCLDY    84  75  74 S9        29.70R
ANDREWS AFB    CLEAR     82  72  72 S14       29.72R
PHILADELPHIA   CLOUDY    84  72  67 SW15G26   29.67S
HENDERSON NC   CLEAR     78  67  69 S6        29.85S
GREENSBORO     PTCLDY    82  71  69 SW15      29.84F
ROCKY MOUNT    CLEAR     83  73  72 S9        29.86R
$$

VAZ100-240200-
MARINE

STATION/POSITION TIME  TEMP    WIND        PRES    WAVE   SWELL
                       AIR SEA DIR/SP/G            HT/PER HT/PER
                 (UTC) (F)     (DEG/KT/KT) (MB)    (FT/S) (FT/S)
BRANDYWINE LGT   0048          220/ 16/ 18 1006.5R
CAPE MAY NJ      0048   74 70  170/  7/ 11 1006.2R
LEWES DE         0048   85 71  220/  5/  8 1006.4R
15NM E FENWICK I 2350   72 67  200/ 19/ 21 1007.4    5/ 5   2/ 9
OCEAN-CITY-INLET 0048   67 64  220/ 14/ 17 1007.9S
WACHAPREAGUE VA  0048   82 80  200/ 10/ 13 1008.4R
THOMAS POINT MD  0000   84 78  210/ 14/ 15   N/A
GOOSES REEF MD   0100   84 79  230/ 12/ 16 1007.5    1/ 3
COVE POINT MD    0048   84     210/ 12/ 15 1007.5R
SOLOMONS ISLAND  0048          220/ 12/ 18   N/A
BISHOPS HEAD MD  0048   83 82  200/ 13/ 15 1007.4R
PINEY POINT MD   0048          240/ 12/ 13   N/A
POTOMAC MD       0100   84 79  230/ 12/ 16 1006.4    2/ 3
CAMBRIDGE MD     0048   84 82              1007.5R
LEWISETTA VA     0048   85 81  230/  9/ 11 1007.1R
RAPPAHANNOCK LGT 0048          190/ 16/ 19 1008.9R
STINGRAY PT      0100   83 77  240/ 12/ 16 1008.5    1/ 2
YORK RVR RNG VA  0048   84     220/ 17/ 19 1008.8S
YORKTOWN VA      0048   85 77  210/ 10/ 14 1008.2S
JAMESTOWN VA     0100   85 83  190/ 10/ 16   N/A
DOMINION TERM VA 0048   83     210/ 11/ 13 1009.3R
KIPTOPEKE VA     0048      79  210/ 15/ 18   N/A
CHES BAY BRIDGE  0048   85 72  230/ 18/ 21 1008.9S
CAPE HENRY VA    0048   86     210/  8/ 14   N/A
WILLOUBY STN VA  0048   86     210/ 20/ 23 1008.8F
S CRANEY ISL VA  0048   86     210/ 11/ 15 1009.2R
CAPE HENRY BUOY  0030      74                N/A     2/ 8
1ST LANDING BUOY 0100   83 74              1009.2    1/ 3
CAPE CHARLES BUO 0051      68                N/A     2/ 9
64NM E OF VA BCH 0050   75 72  210/ 21/ 25 1010.7R   5/ 5   2/ 8
DUCK PIER NC     0048   82 62  200/ 17/ 23 1010.5R
44100 DUCK FRF   0005      69                N/A     3/ 4
OREGON INLET NC  0048          200/ 25/ 27 1012.1S
HATTERAS NC      0048   79 80  220/ 13/ 18 1013.3S
DIAMOND SHLS NC  0050   81 80  220/ 21/ 25 1013.5S   6/ 5   2/ 9
CAPE LOOKOUT NC  0100   80     210/ 14/ 20 1013.9R
$$




USA.gov is the U.S. government's official web portal to all federal, state and local government web resources and services.